#timestamp,LO_Frequency,Hit,StdDev 
1549936815.5,286047004.3,N
1549936835.3,286047002.3,N
1549936855.1,286047000.5,N
1549936875.9,286046998.8,N
1549936895.7,286046999.4,N
1549936915.6,286046999.9,N
1549936935.4,286047002.7,N
1549936955.6,286047000.2,N
1549936975.5,286047002.2,N
1549936995.3,286046999.8,N
1549937015.2,286046998.1,N
1549937035.0,286046998.5,N
1549937035.9,286046998.5,N
1549937055.7,286046997.2,N
1549937075.6,286046997.7,N
1549937095.4,286046996.5,N
1549937115.3,286046999.5,N
1549937135.1,286046998.8,N
1549937136.0,286046998.8,N
1549937155.8,286046998.4,N
1549937175.7,286047001.2,N
1549937195.5,286046998.7,N
1549937215.4,286046998.9,N
1549937235.2,286047000.0,N
1549937255.0,286046998.3,N
1549937255.9,286046998.3,N
1549937275.8,286046998.1,N
1549937295.6,286046998.8,N
1549937315.4,286046999.6,N
1549937335.3,286046997.9,N
1549937355.1,286046999.4,N
1549937375.9,286046997.0,N
1549937395.7,286046995.4,Y
1549937415.5,286046995.1,P
1549937435.4,286046995.5,N
1549937455.2,286046996.2,N
1549937475.1,286046996.2,N
1549937476.0,286046996.2,N
1549937495.8,286046996.0,Y
1549937515.6,286046998.6,P
1549937535.5,286047001.2,N
1549937555.3,286046998.6,N
1549937575.2,286046999.2,N
1549937595.9,286046996.9,N
1549937615.7,286046996.7,N
1549937635.6,286046994.9,Y
1549937655.4,286046998.8,P
1549937675.3,286047000.9,P
1549937695.1,286047002.5,N
1549937696.0,286047002.5,N
1549937715.8,286047001.8,N
1549937735.7,286047002.0,N
1549937755.5,286046999.9,N
1549937775.3,286047000.6,N
1549937795.2,286047000.9,N
1549937815.0,286046998.5,N
1549937815.9,286046998.5,N
1549937835.8,286047001.2,N
1549937855.6,286047000.8,N
1549937875.4,286047001.1,N
1549937895.3,286047000.0,N
1549937915.1,286047002.8,N
1549937935.9,286046999.9,N
1549937955.7,286047000.5,N
1549937975.5,286046998.8,N
1549937995.4,286046996.9,N
1549938015.2,286046998.7,N
1549938035.1,286046998.9,N
1549938036.0,286046998.9,N
1549938055.8,286046997.3,N
1549938075.6,286046998.8,N
1549938095.5,286046999.6,N
1549938115.3,286046996.7,N
1549938135.1,286046997.8,N
1549938155.9,286046997.9,N
1549938175.1,286046996.6,N
1549938195.9,286046999.6,N
1549938215.7,286046999.2,N
1549938235.5,286046997.1,N
1549938255.2,286046997.3,N
1549938275.0,286046999.0,N
1549938276.0,286046999.0,N
1549938295.8,286046999.1,N
1549938315.6,286046999.6,N
1549938335.5,286046996.8,N
1549938355.3,286046999.0,N
1549938375.1,286046996.6,N
1549938395.9,286046997.0,N
1549938415.7,286046997.8,N
1549938435.6,286046998.0,N
1549938455.4,286046996.2,N
1549938475.3,286046994.2,Y
1549938495.1,286046995.7,P
1549938496.0,286046995.7,P
1549938515.8,286046995.7,P
1549938535.7,286046995.4,Y
1549938555.5,286046998.4,P
1549938575.3,286046999.0,N
1549938595.2,286046999.2,N
1549938615.0,286046999.4,N
1549938615.9,286046999.4,N
1549938635.8,286046998.8,N
1549938655.6,286046999.5,N
1549938675.4,286046996.8,Y
1549938695.3,286046998.8,P
1549938715.1,286046996.6,P
1549938735.9,286046996.5,P
1549938755.7,286047001.0,N
1549938775.5,286047001.2,N
1549938795.4,286046998.2,N
1549938815.2,286046997.7,N
1549938835.0,286046997.0,N
1549938835.9,286046997.0,N
1549938855.8,286046996.9,N
1549938875.6,286046998.0,N
1549938895.5,286046997.2,N
1549938915.3,286046997.8,N
1549938935.1,286046995.0,Y
1549938955.9,286046996.5,P
1549938975.7,286046999.0,N
1549938995.6,286046999.3,N
1549939015.4,286046998.3,N
1549939035.2,286046998.8,N
1549939055.1,286046999.0,N
1549939056.0,286046999.0,N
1549939075.8,286047000.9,N
1549939095.6,286047000.4,N
1549939115.5,286046998.7,N
1549939135.3,286047000.8,N
1549939155.2,286047002.8,N
1549939175.9,286047000.0,N
1549939195.7,286047001.0,N
1549939215.6,286047000.0,N
1549939235.4,286047001.9,N
1549939255.2,286047001.5,N
1549939275.1,286047004.9,Y
1549939276.0,286047004.9,P
1549939295.8,286047004.5,N
1549939315.7,286047002.9,N
1549939335.5,286047002.1,N
1549939355.3,286046999.7,N
1549939375.2,286047000.5,N
1549939395.0,286047000.0,N
1549939395.9,286047000.0,N
1549939415.8,286047000.2,N
1549939435.6,286047001.0,N
1549939455.4,286047000.9,N
1549939475.3,286047000.8,N
1549939495.1,286046998.6,N
1549939515.8,286047000.9,N
1549939535.7,286046999.9,N
1549939555.5,286047002.0,N
1549939575.4,286047000.5,N
1549939595.2,286047000.4,N
1549939615.0,286047000.6,N
1549939615.9,286047000.6,N
1549939635.8,286047000.5,N
1549939655.6,286046998.2,N
1549939675.5,286046998.2,N
1549939695.3,286046998.3,N
1549939715.1,286046998.4,N
1549939735.9,286046999.3,N
1549939755.7,286047000.5,N
1549939775.6,286047000.2,N
1549939795.4,286047001.0,N
1549939815.2,286047002.8,N
1549939835.1,286047002.5,N
1549939836.0,286047002.5,N
1549939855.8,286047002.1,N
1549939875.7,286047002.3,N
1549939895.5,286046999.8,N
1549939915.3,286047000.5,N
1549939935.2,286046998.9,N
1549939955.0,286047001.1,N
1549939955.9,286047001.1,N
1549939975.8,286047000.6,N
1549939995.6,286047002.2,N
1549940015.4,286047000.2,N
1549940035.3,286047002.4,N
1549940055.1,286047002.8,N
1549940075.8,286047002.8,N
1549940095.7,286047002.7,N
1549940115.5,286047002.3,N
1549940135.4,286046999.8,N
1549940155.2,286047002.2,N
1549940175.0,286047002.3,N
1549940175.9,286047002.3,N
1549940195.8,286047002.7,N
1549940215.6,286046999.9,N
1549940235.5,286047002.6,N
1549940255.3,286047002.6,N
1549940275.1,286047002.3,N
1549940295.9,286047002.3,N
1549940315.7,286047000.2,N
1549940335.5,286047002.3,N
1549940355.4,286047002.2,N
1549940375.2,286047001.9,N
1549940395.1,286047001.3,N
1549940396.0,286047001.3,N
